Wind_Speed
30 31 31 31 31 31 31 32 34 35 36 37 37 37 37 37 37 36 36 36 36 37 38 39 40 41 41 41 41 41 42 42 43 44 45 45 46 46 46 47 47 47 47
31 33 33 33 33 33 33 34 35 36 37 38 38 37 37 37 38 38 38 38 39 40 41 42 42 43 44 45 45 46 47 48 49 50 50 51 51 52 52 52 53 53 53
31 32 32 32 32 33 34 36 37 38 38 39 38 38 38 38 39 39 40 41 42 43 44 45 46 47 48 49 51 52 53 54 55 56 57 57 58 58 59 59 59 59 59
31 30 30 30 31 33 34 36 38 39 39 39 39 39 39 39 40 41 42 43 44 46 47 48 50 51 53 55 56 58 59 61 62 63 64 65 65 66 66 66 66 66 65
30 30 30 31 33 35 36 38 39 40 40 39 39 39 40 41 42 43 44 46 48 49 51 53 55 57 59 60 62 64 66 67 69 70 71 72 72 72 73 73 72 72 71
30 31 31 33 35 37 39 41 42 41 41 40 40 40 41 42 43 45 47 49 51 53 56 58 61 63 65 67 68 70 71 72 73 74 75 76 76 77 78 78 78 77 76
32 33 34 37 39 40 42 43 43 43 43 42 42 41 43 44 46 48 51 54 57 60 62 64 67 69 70 72 73 74 75 76 77 77 78 79 79 80 81 82 82 82 82
34 36 38 40 42 43 44 44 44 44 44 44 44 44 45 47 50 53 57 60 63 65 67 69 71 73 74 75 76 77 78 78 79 80 81 82 83 84 85 86 86 87 88
37 39 41 43 44 45 45 45 44 44 45 47 49 51 53 54 55 56 60 63 66 68 70 72 73 75 76 77 78 78 79 80 81 83 84 86 88 89 90 91 92 93 94
40 42 43 44 44 44 45 45 46 47 48 51 54 57 61 64 66 65 64 65 67 69 71 73 74 76 78 79 81 82 84 85 86 88 90 92 93 95 97 98 99 100 100
42 43 44 44 44 44 45 46 48 51 53 56 59 62 65 68 72 74 73 73 72 71 72 73 75 78 80 83 85 87 89 91 94 96 98 99 101 102 104 105 106 107 107
43 43 44 44 44 45 47 49 52 55 58 61 64 67 69 71 73 75 77 77 77 76 76 76 79 82 86 89 92 95 98 101 103 105 107 109 110 111 112 112 112 113 113
43 44 44 44 45 47 50 53 55 59 62 65 68 70 72 74 75 76 78 78 78 78 80 82 86 90 95 99 102 106 108 111 113 114 115 115 116 115 114 113 111 110 109
43 44 45 46 48 50 53 56 59 62 65 68 70 72 73 74 75 77 79 82 83 82 84 88 93 98 103 107 111 114 116 117 117 116 115 113 110 107 104 102 100 99 98
44 45 46 48 51 53 56 59 62 66 69 71 72 72 72 73 76 79 83 88 92 93 91 94 100 105 110 114 116 117 116 114 110 107 103 99 96 93 91 90 89 88 87
45 47 49 51 53 56 59 63 66 69 71 71 71 71 73 76 80 85 90 95 100 105 104 103 108 111 113 114 113 110 106 101 96 92 89 87 85 84 83 82 82 81 80
47 49 51 53 56 59 62 66 68 70 70 70 71 74 77 82 87 92 97 102 107 113 116 113 112 110 107 103 98 94 92 89 86 83 81 80 78 77 77 76 75 74 73
49 51 53 56 59 62 65 68 69 69 69 71 74 79 83 88 93 99 104 109 113 116 118 116 107 99 92 87 83 80 80 80 79 76 74 73 71 70 68 67 66 66 65
51 53 55 59 62 65 67 68 68 69 71 75 80 85 90 95 100 106 111 114 115 113 109 105 97 88 82 78 76 73 72 70 69 66 64 63 62 61 60 60 59 58 57
53 55 58 61 64 66 67 67 68 71 75 81 86 92 97 102 108 112 115 114 110 104 98 92 88 82 78 73 71 66 61 57 54 53 54 54 54 53 53 52 49 48 48
55 58 61 64 66 66 66 68 71 76 81 86 92 97 103 109 113 114 112 107 101 94 89 86 82 76 70 64 59 53 48 43 41 44 45 46 47 46 45 43 41 39 39
57 61 63 64 65 65 68 71 76 81 87 93 98 103 109 112 112 107 102 96 91 86 82 77 70 63 56 50 45 41 38 35 32 35 40 38 41 39 37 35 33 32 32
59 62 63 63 64 67 71 76 81 87 93 98 104 109 111 109 104 97 91 85 79 72 67 61 54 48 44 41 37 34 32 30 30 33 35 31 33 31 29 28 29 29 29
60 60 61 63 66 71 76 81 87 92 98 103 108 110 107 100 93 87 80 73 64 55 50 45 42 40 37 35 33 31 29 27 28 31 32 28 27 25 25 26 26 26 27
58 60 62 66 71 76 82 87 93 97 102 106 106 103 97 89 82 75 68 58 49 42 38 36 36 34 33 33 32 30 27 25 23 26 29 27 24 22 22 23 23 23 24
58 61 65 70 76 82 88 94 99 102 105 103 98 90 83 77 70 62 54 46 38 32 29 28 29 30 30 30 30 29 28 26 24 23 25 24 22 19 16 19 19 19 20
Wind_Direction
292 292 292 292 291 292 294 295 296 297 297 296 294 291 288 285 283 281 280 279 278 277 276 276 276 276 275 273 271 269 268 267 267 267 266 266 266 266 266 266 266 266 265
292 291 290 290 291 291 293 295 297 299 298 296 293 290 287 285 283 282 280 279 278 277 277 276 275 274 274 273 272 271 271 270 270 270 270 271 271 270 270 270 269 268 268
293 292 291 290 290 291 292 295 297 298 297 295 292 289 286 285 284 283 282 282 281 280 279 278 277 276 275 274 274 274 274 274 273 273 273 273 273 273 273 272 272 271 270
294 293 292 292 291 292 294 295 297 297 296 295 292 289 287 286 285 284 284 283 283 282 281 281 280 280 279 279 278 278 278 277 276 275 274 274 273 273 273 273 273 273 272
294 293 293 292 293 294 295 296 297 296 295 293 291 289 287 286 285 285 284 284 284 284 283 283 283 283 282 282 281 280 279 278 278 277 276 275 274 274 273 273 272 272 271
293 293 293 293 294 295 296 296 296 295 293 291 289 287 286 285 285 285 286 286 287 287 287 286 286 285 285 284 283 281 280 279 278 277 276 275 274 274 274 273 272 271 270
293 293 294 295 295 296 296 296 295 294 293 291 289 288 288 289 289 290 291 291 291 291 291 290 290 289 288 287 286 285 283 282 280 279 277 276 275 274 273 272 271 270 269
293 294 294 295 296 296 296 295 294 294 293 291 290 289 289 291 292 293 294 294 293 293 293 292 291 290 289 287 286 285 283 282 281 279 278 277 275 274 273 272 270 269 268
293 294 295 296 296 297 296 295 295 294 294 294 294 294 293 291 290 291 292 293 293 293 293 292 291 289 288 287 285 284 283 282 280 279 278 277 276 274 273 272 270 269 267
293 294 295 296 297 297 296 296 296 296 296 297 297 297 297 297 296 294 293 293 293 293 292 292 291 290 289 288 287 286 285 284 282 281 279 278 277 275 274 272 271 269 268
294 295 296 296 297 297 297 297 297 298 298 298 298 298 298 299 299 298 297 296 295 295 295 294 294 293 292 291 290 289 287 286 285 284 282 281 279 277 275 274 272 270 269
294 295 296 296 296 296 297 297 298 298 298 299 299 299 299 299 298 298 297 297 296 297 297 297 297 296 295 294 293 292 291 289 288 286 285 283 282 280 278 276 274 272 270
294 294 295 295 296 296 297 297 298 298 299 300 300 301 301 301 301 300 300 299 298 298 299 299 299 298 297 296 295 294 292 291 289 287 286 284 283 282 280 278 276 274 272
293 293 294 295 295 296 297 297 298 300 300 301 302 302 303 303 303 302 302 301 300 299 300 300 300 299 298 297 295 294 292 290 289 287 286 284 283 282 280 278 276 274 272
293 294 294 295 296 297 298 299 300 302 303 304 304 304 304 304 304 304 304 304 303 302 301 301 300 299 298 297 295 293 291 290 289 287 286 285 283 282 280 278 276 274 271
294 295 296 296 297 298 300 301 302 304 305 306 306 305 305 305 305 305 305 305 305 304 303 302 301 299 298 296 294 293 292 290 289 288 287 286 285 283 281 279 277 275 272
296 296 297 298 299 300 302 303 305 306 306 306 306 306 306 306 307 307 306 306 305 305 304 303 301 299 297 295 293 292 292 291 291 290 289 288 286 284 282 279 277 275 273
297 297 298 299 301 302 304 305 307 307 307 307 307 307 307 308 308 308 307 307 306 305 304 303 302 300 298 296 294 292 291 291 291 290 289 287 285 283 282 280 278 276 273
298 299 299 301 303 305 306 307 308 308 308 308 308 308 309 309 309 308 308 308 307 306 304 303 303 302 300 298 296 294 292 292 291 290 288 287 285 285 283 281 279 277 275
299 300 302 304 305 307 308 308 308 308 309 309 310 310 310 310 310 310 309 308 307 306 305 304 303 303 302 300 298 297 295 294 292 290 288 287 287 287 286 284 282 280 277
301 302 304 306 307 308 308 308 309 310 310 311 311 312 312 312 312 311 311 309 308 306 305 304 304 303 303 301 300 300 300 297 294 290 288 290 291 291 290 289 288 286 282
303 305 306 308 308 308 309 309 310 312 312 313 313 313 313 313 313 312 310 309 308 307 306 305 305 305 305 305 306 306 305 302 298 291 292 294 294 296 295 293 293 292 291
305 306 308 308 309 309 310 311 312 313 314 314 314 314 315 315 313 312 311 310 309 308 307 307 307 308 309 310 311 312 311 309 304 298 297 296 295 297 297 298 297 298 299
306 307 308 309 310 311 312 313 314 315 315 315 316 316 316 315 314 313 312 312 312 311 310 310 310 313 315 317 318 321 320 318 313 307 307 307 301 298 298 301 303 305 305
307 309 310 311 312 313 314 315 315 315 316 317 318 318 317 316 315 315 315 316 317 316 315 314 315 319 322 324 326 328 330 330 325 315 315 316 311 306 303 305 311 314 314
308 310 312 313 314 315 316 316 316 317 318 319 319 318 317 317 318 318 319 321 322 321 319 319 320 322 325 327 330 334 337 338 334 326 320 320 319 316 313 315 322 327 329
Height
5804 5802 5800 5798 5796 5794 5792 5790 5787 5784 5781 5778 5775 5772 5768 5765 5763 5760 5758 5756 5754 5752 5750 5748 5746 5743 5742 5740 5738 5737 5735 5734 5733 5731 5730 5729 5729 5728 5727 5727 5726 5726 5726
5798 5796 5794 5792 5790 5788 5786 5783 5780 5777 5774 5771 5767 5764 5761 5758 5755 5753 5750 5748 5745 5743 5741 5739 5737 5735 5732 5730 5728 5727 5725 5724 5722 5721 5719 5718 5717 5716 5715 5714 5714 5713 5713
5792 5789 5787 5785 5783 5781 5779 5776 5773 5770 5767 5763 5760 5757 5753 5750 5747 5745 5742 5739 5737 5734 5731 5729 5727 5724 5722 5720 5717 5715 5713 5711 5709 5708 5706 5705 5703 5702 5701 5700 5699 5699 5699
5785 5783 5781 5779 5776 5774 5771 5768 5765 5762 5758 5755 5752 5748 5745 5742 5739 5736 5733 5730 5727 5724 5721 5718 5715 5712 5710 5707 5704 5702 5699 5697 5694 5692 5690 5689 5687 5686 5685 5684 5683 5682 5682
5778 5776 5774 5772 5769 5767 5764 5760 5757 5754 5750 5747 5743 5740 5736 5733 5730 5726 5723 5719 5716 5713 5709 5706 5703 5699 5696 5693 5689 5686 5683 5680 5678 5675 5672 5670 5668 5667 5666 5665 5664 5664 5664
5771 5769 5767 5765 5762 5759 5755 5752 5748 5745 5741 5738 5734 5731 5727 5723 5720 5716 5712 5708 5704 5700 5696 5692 5688 5684 5680 5676 5672 5668 5665 5662 5659 5656 5653 5650 5648 5646 5645 5644 5643 5643 5643
5765 5762 5760 5757 5754 5750 5747 5743 5738 5734 5731 5728 5725 5721 5717 5713 5709 5705 5700 5696 5691 5686 5681 5676 5671 5666 5661 5656 5651 5647 5643 5639 5636 5633 5631 5628 5626 5624 5622 5621 5620 5620 5620
5757 5755 5752 5748 5745 5741 5737 5733 5729 5724 5720 5716 5713 5711 5708 5706 5699 5694 5688 5682 5677 5671 5666 5660 5654 5648 5642 5637 5632 5627 5622 5617 5614 5610 5607 5604 5601 5599 5598 5596 5595 5595 5594
5750 5746 5743 5739 5735 5730 5726 5722 5718 5714 5709 5704 5700 5697 5693 5691 5690 5687 5680 5671 5664 5657 5650 5643 5636 5629 5622 5617 5611 5606 5600 5596 5591 5587 5582 5578 5575 5572 5570 5568 5567 5566 5566
5741 5737 5733 5729 5724 5720 5716 5711 5707 5703 5699 5694 5688 5682 5676 5670 5666 5666 5666 5658 5650 5642 5634 5626 5618 5609 5602 5595 5589 5582 5576 5571 5565 5560 5555 5550 5547 5543 5540 5537 5536 5535 5534
5732 5728 5723 5719 5714 5710 5705 5701 5696 5692 5687 5682 5676 5670 5663 5655 5647 5640 5638 5636 5630 5622 5614 5605 5597 5587 5578 5571 5563 5556 5549 5542 5536 5530 5524 5518 5513 5509 5505 5502 5500 5499 5498
5722 5718 5713 5709 5705 5700 5696 5691 5686 5680 5675 5668 5662 5655 5648 5641 5633 5624 5618 5612 5606 5600 5592 5584 5574 5563 5553 5543 5534 5525 5517 5509 5501 5494 5487 5480 5474 5468 5464 5461 5459 5458 5457
5713 5709 5704 5700 5696 5691 5686 5681 5675 5669 5662 5655 5647 5639 5630 5621 5612 5603 5596 5591 5586 5580 5570 5561 5548 5536 5524 5512 5502 5491 5482 5472 5464 5456 5448 5440 5432 5426 5421 5417 5415 5414 5413
5704 5699 5695 5691 5686 5681 5676 5670 5663 5656 5648 5640 5631 5622 5613 5603 5594 5583 5574 5566 5561 5559 5552 5541 5526 5511 5496 5482 5469 5456 5445 5434 5424 5416 5408 5400 5393 5387 5382 5378 5375 5373 5373
5695 5690 5685 5681 5675 5670 5664 5657 5650 5642 5633 5624 5614 5605 5596 5586 5576 5565 5554 5542 5531 5527 5528 5519 5502 5486 5468 5451 5435 5420 5407 5395 5386 5377 5370 5363 5357 5352 5347 5343 5341 5339 5338
5685 5680 5675 5670 5664 5658 5651 5644 5636 5627 5617 5607 5598 5589 5579 5569 5558 5545 5533 5519 5504 5491 5489 5490 5473 5456 5438 5418 5400 5384 5370 5359 5351 5344 5337 5331 5326 5321 5316 5312 5309 5308 5307
5674 5670 5664 5658 5652 5645 5637 5629 5620 5611 5601 5591 5581 5571 5561 5549 5538 5524 5510 5495 5479 5459 5447 5448 5437 5421 5404 5388 5372 5356 5341 5330 5323 5316 5310 5303 5298 5293 5288 5284 5281 5279 5278
5664 5659 5653 5646 5639 5632 5623 5614 5605 5595 5585 5574 5564 5553 5541 5529 5515 5500 5484 5468 5451 5431 5410 5400 5397 5385 5371 5358 5345 5334 5321 5309 5300 5293 5286 5279 5273 5268 5264 5260 5257 5255 5253
5653 5647 5641 5634 5626 5617 5608 5599 5589 5579 5568 5557 5545 5533 5520 5506 5491 5475 5458 5439 5421 5402 5381 5363 5356 5349 5340 5330 5318 5311 5301 5290 5280 5271 5264 5258 5252 5247 5242 5238 5235 5234 5232
5641 5635 5628 5620 5612 5603 5593 5583 5573 5563 5552 5539 5525 5511 5496 5480 5463 5446 5428 5409 5389 5372 5355 5339 5327 5320 5312 5304 5293 5286 5280 5272 5263 5253 5246 5240 5235 5229 5225 5220 5218 5216 5214
5629 5622 5615 5606 5597 5587 5577 5567 5558 5546 5534 5520 5505 5488 5471 5453 5434 5413 5393 5375 5358 5343 5329 5316 5306 5297 5289 5281 5273 5266 5261 5256 5249 5238 5232 5227 5220 5215 5210 5206 5203 5200 5198
5617 5609 5600 5592 5582 5572 5562 5551 5540 5528 5514 5498 5483 5466 5447 5427 5407 5387 5367 5349 5332 5318 5305 5294 5286 5277 5271 5264 5258 5252 5246 5242 5237 5229 5220 5217 5209 5204 5200 5195 5192 5188 5186
5604 5595 5586 5577 5568 5557 5547 5535 5522 5509 5493 5476 5458 5440 5421 5400 5379 5361 5346 5331 5317 5301 5288 5277 5270 5264 5258 5253 5248 5243 5237 5231 5225 5218 5211 5208 5201 5196 5191 5187 5183 5180 5176
5591 5582 5572 5563 5553 5542 5530 5517 5504 5490 5473 5454 5433 5412 5392 5375 5356 5338 5325 5313 5300 5288 5277 5268 5261 5255 5249 5244 5238 5234 5228 5223 5217 5208 5201 5199 5194 5189 5185 5180 5176 5172 5168
5577 5568 5558 5548 5537 5525 5512 5498 5483 5469 5452 5433 5411 5388 5366 5350 5336 5320 5307 5297 5288 5278 5270 5261 5254 5248 5243 5238 5232 5227 5222 5217 5211 5204 5196 5191 5187 5183 5179 5175 5170 5166 5161
5564 5555 5544 5533 5521 5508 5493 5478 5460 5445 5430 5414 5393 5371 5350 5333 5319 5306 5296 5287 5279 5272 5265 5259 5252 5246 5240 5234 5228 5222 5216 5211 5206 5200 5192 5187 5182 5178 5175 5171 5167 5162 5156